World > North America > United States > Oregon

McNary, Oregon Regional Weather

Lat: 45.92N, Lon: 119.29W
Wx Zone: ORZ044Web Search

Helpful Tip: Type the letters wx in the search engine next time you need to find us.

Feedback


°F Click to change McNary hourly weather to Imperial units.Click to change McNary hourly weather to Metric units. °C
Mcnary Weather Map
UTC Time: 5/17/2021, 00:52
Your Time:

McNary, OR Regional Weather

Expires:202105170100;;229567
ASUS46 KPQR 170010
RWROR 

OREGON REGIONAL WEATHER ROUNDUP
NATIONAL WEATHER SERVICE PORTLAND OR
500 PM PDT SUN MAY 16 2021

NOTE: "FAIR" INDICATES FEW OR NO CLOUDS BELOW 12,000 FEET WITH
NO SIGNIFICANT WEATHER AND/OR OBSTRUCTIONS TO VISIBILITY.


ORZ029>031-041-044-049-050-061>064-502-503-505>511-170100-
EASTERN OREGON

  
CITY           SKY/WX    TMP DP  RH WIND       PRES   REMARKS
MADRAS         SUNNY     82  32  16 NE5       29.86F                  
REDMOND        SUNNY     83  29  14 N13       29.87F                  
6HR MIN TEMP:  74; 6HR MAX TEMP:  84;                                

BEND           SUNNY     82  23  11 VRB5G13   29.90F                  
PRINEVILLE     SUNNY     81  19  10 NW8G18    29.89F                  
KLAMATH FALLS  SUNNY     80  21  11 NW13      29.92F                  
6HR MIN TEMP:  68; 6HR MAX TEMP:  80;                                

HERMISTON      SUNNY     90  36  14 VRB3      29.76F                  
6HR MIN TEMP:  77; 6HR MAX TEMP:  91;                                

PENDLETON      SUNNY     86  32  14 NW7       29.80F                  
6HR MIN TEMP:  76; 6HR MAX TEMP:  87;                                

JOHN DAY       SUNNY     81  32  17 SW6G16    29.88F                  
MEACHAM        SUNNY     74  35  24 MISG      29.91F                  
6HR MIN TEMP:  70; 6HR MAX TEMP:  76;                                

LA GRANDE      NOT AVBL                                               
BAKER CITY     SUNNY     80  31  16 NW8       29.85F                  
6HR MIN TEMP:  71; 6HR MAX TEMP:  81;                                

BURNS          SUNNY     80  29  15 SW12      29.88F                  
6HR MIN TEMP:  72; 6HR MAX TEMP:  81;                                

ROME             N/A     79  25  13 N10G21    29.85S                  
6HR MIN TEMP:  72; 6HR MAX TEMP:  83;                                

ONTARIO          N/A     89  26  10 VRB5G16   29.77F                  
6HR MIN TEMP:  81; 6HR MAX TEMP:  91;                                

$$


OTHER REGIONAL REPORTS
  
CITY           SKY/WX    TMP DP  RH WIND       PRES   REMARKS
SEATTLE        MOSUNNY   76  49  38 W6        29.90F                  
6HR MIN TEMP:  64; 6HR MAX TEMP:  76;                                

SPOKANE        MOSUNNY   82  33  17 SW9G20    29.84F                  
6HR MIN TEMP:  74; 6HR MAX TEMP:  82;                                

VANCOUVER BC   MOSUNNY   66  55  68 W8        29.90F                  
PRINCE GEORGE  LGT RAIN  57  43  58 N3        29.81S                  
DAWSON CREEK   MOSUNNY   63  37  39 W17       29.71S                  
WHITEHORSE     LGT RAIN  43  32  65 SW13      29.72S                  
BOISE          LGT RAIN  85  28  12 NW13G25   29.77F                  
6HR MIN TEMP:  72; 6HR MAX TEMP:  85; 6HR PCP: TRACE;                

REDDING        SUNNY     89  49  25 S15       29.73F                  
6HR MIN TEMP:  74; 6HR MAX TEMP:  90;                                

SAN FRANCISCO  MOSUNNY   62  48  60 W17       29.95F                  
6HR MIN TEMP:  61; 6HR MAX TEMP:  67;                                


$$

  

SKY/WX - Weather  TMP - Temperature  DP - Dew Point  RH - Relative Humidity
WIND - Wind Direction/Speed PRES - Barometric Pressure VSB - Visibility
WCI - Wind Chill Index E13G22 Wind - East Wind 13 mph/Gusts of 22 mph